SCP
0 0 0 0 0 0 0 0 0 0 0 0 0 0 0 0 0 1 1 1 1 1 1 1 0 0 0 0 0 0 0 0 0 0 0 0 0 0 0 0 0 0 0 0
0 0 0 0 0 0 0 0 0 0 0 0 0 0 0 0 1 1 1 1 1 1 1 1 1 0 0 0 0 0 0 0 0 0 0 0 0 0 0 0 0 0 0 0
0 0 0 0 0 0 0 0 0 0 0 0 0 0 0 0 1 0 0 0 1 1 1 1 1 1 1 1 1 0 0 0 0 0 0 0 0 0 0 0 0 0 0 0
0 0 0 0 0 0 0 0 0 0 0 0 0 0 0 0 0 0 0 0 0 1 1 1 1 1 1 1 1 1 0 0 0 0 0 0 0 0 0 0 0 0 0 0
0 0 0 0 0 0 0 0 0 0 0 0 0 0 0 0 0 0 0 0 0 1 1 1 1 1 1 1 1 1 0 0 0 0 0 0 0 0 0 0 0 0 0 0
0 0 0 0 0 0 0 0 0 0 0 0 0 0 0 0 0 0 0 1 1 1 1 1 1 1 1 1 1 1 0 0 0 0 0 0 0 0 0 0 0 0 0 0
0 0 0 0 0 0 0 0 0 0 0 0 0 0 0 0 1 1 1 1 1 1 1 1 1 1 1 1 1 1 0 0 0 0 0 0 0 0 0 0 0 0 0 0
0 0 0 0 0 0 0 0 0 0 0 0 0 0 0 1 1 1 1 1 1 1 1 1 1 1 1 1 1 0 0 0 0 0 0 0 0 0 0 0 0 0 0 0
0 0 0 0 0 0 0 0 0 0 0 0 0 0 1 1 1 1 1 1 1 1 1 1 1 1 1 1 1 0 0 0 0 0 0 0 0 0 0 0 0 0 0 0
0 0 0 0 0 0 0 0 0 0 0 0 1 1 1 1 1 1 1 1 1 1 1 1 1 1 1 1 1 0 0 0 0 0 0 0 0 0 0 0 0 0 0 0
0 0 0 0 0 0 0 0 1 1 1 1 1 1 1 1 1 1 1 1 1 1 1 1 1 1 1 1 0 0 0 0 0 0 0 0 0 0 0 0 0 0 0 0
0 0 0 0 0 0 0 0 1 1 1 1 1 1 1 1 1 1 1 1 1 1 1 1 1 1 1 0 0 0 0 0 0 0 0 0 0 0 0 0 0 0 0 0
0 0 0 0 0 0 0 0 1 1 1 1 1 1 1 1 1 1 1 1 1 1 1 1 1 1 0 0 0 0 0 0 0 0 0 0 0 0 0 0 0 0 0 0
0 0 0 0 0 0 0 1 1 1 1 1 1 1 1 1 1 1 1 1 1 1 1 1 1 0 0 0 0 0 0 0 0 0 0 0 0 0 0 0 0 0 0 0
0 0 0 0 0 0 0 1 1 1 1 1 1 1 1 1 1 1 1 1 1 1 1 1 0 0 0 0 0 0 0 0 0 0 0 0 0 0 0 0 0 0 0 0
0 0 0 0 0 0 0 0 1 1 1 1 1 1 1 1 1 1 1 1 1 1 1 0 0 0 0 0 0 0 0 0 0 0 0 0 0 0 0 0 0 0 0 0
0 0 0 0 0 0 0 0 0 0 1 1 1 1 1 1 1 1 1 1 1 1 0 0 0 0 0 0 0 0 0 0 0 0 0 0 0 0 0 0 0 0 0 0
0 0 0 0 0 0 0 0 0 0 0 0 1 1 1 1 1 0 0 0 0 0 0 0 0 0 0 0 0 0 0 0 0 0 0 0 0 0 0 0 0 0 0 0
0 0 0 0 0 0 0 0 0 0 0 0 0 0 0 0 0 0 0 0 0 0 0 0 0 0 0 0 0 0 0 0 0 0 0 0 0 0 0 0 0 0 0 0
0 0 0 0 0 0 0 0 0 0 0 0 0 0 0 0 0 0 0 0 0 0 0 0 0 0 0 0 0 0 0 0 0 0 0 0 0 0 0 0 0 0 0 0
0 0 0 0 0 0 0 0 0 0 0 0 0 0 0 0 0 0 0 0 0 0 0 0 0 0 0 0 0 0 0 0 0 0 0 0 0 0 0 0 0 0 0 0
0 0 0 0 0 0 0 0 0 0 0 0 0 0 0 0 0 0 0 0 0 0 0 0 0 0 0 0 0 0 0 0 0 0 0 0 0 0 0 0 0 0 0 0
0 0 0 0 0 0 0 0 0 0 0 0 0 0 0 0 0 0 0 0 0 0 0 0 0 0 0 0 0 0 0 0 0 0 0 0 0 0 0 0 0 0 0 0
0 0 0 0 0 0 0 0 0 0 0 0 0 0 0 0 0 0 0 0 0 0 0 0 0 0 0 0 0 0 0 0 0 0 0 0 0 0 0 0 0 0 0 0
0 0 0 0 0 0 0 0 0 0 0 0 0 0 0 0 0 0 0 0 0 0 0 0 0 0 0 0 0 0 0 0 0 0 0 0 0 0 0 0 0 0 0 0
0 0 0 0 0 0 0 0 0 0 0 0 0 0 0 0 0 0 0 0 0 0 0 0 0 0 0 0 0 0 0 0 0 0 0 0 0 0 0 0 0 0 0 0
0 0 0 0 0 0 0 0 0 0 0 0 0 0 0 0 0 0 0 0 0 0 0 0 0 0 0 0 0 0 0 0 0 0 0 0 0 0 0 0 0 0 0 0
Wind_Speed
4 4 4 4 6 7 6 9 9 9 8 8 7 6 5 5 5 5 6 6 7 7 7 6 6 6 6 6 6 6 6 6 5 4 5 5 5 4 4 4 5 4 4 4
1 1 3 2 4 7 5 5 5 3 6 6 3 2 3 6 7 7 7 8 8 8 8 8 8 7 7 6 6 6 6 5 5 6 5 5 5 5 5 5 4 5 5 5
2 1 3 2 4 6 4 4 7 7 8 2 3 6 8 9 9 9 9 8 9 9 9 8 8 8 8 7 6 7 6 6 6 6 6 6 6 6 5 4 4 5 4 5
4 4 4 8 3 4 5 3 4 4 4 5 6 6 4 6 8 8 8 8 8 7 8 7 6 7 7 7 7 6 6 6 6 7 7 6 6 6 4 4 4 4 4 4
5 4 3 5 2 4 5 2 3 4 3 2 2 3 1 4 6 7 8 7 6 7 7 7 8 8 9 8 7 7 7 7 7 7 7 7 6 5 4 4 4 3 3 4
5 5 6 7 3 1 5 2 3 4 5 3 5 3 6 5 5 4 4 5 5 6 7 8 8 9 9 8 8 7 7 7 7 7 7 7 6 5 4 4 4 4 4 3
5 3 6 6 4 2 5 7 3 4 5 7 7 7 4 4 4 4 5 6 6 7 7 8 9 9 9 8 8 7 7 7 7 6 6 6 6 4 5 5 4 4 4 3
5 4 6 3 1 4 5 3 1 3 4 5 4 2 2 4 5 5 6 6 7 7 6 6 8 9 9 8 7 7 7 7 7 6 6 6 6 5 5 5 5 4 3 2
7 6 4 2 2 2 2 1 2 2 3 4 3 2 2 3 4 5 6 7 6 7 8 7 7 8 9 7 7 8 8 7 6 6 5 6 6 6 4 4 4 3 3 2
0 3 3 3 2 2 1 1 2 1 2 4 4 3 3 4 4 4 5 6 7 8 8 7 7 6 7 8 8 9 8 7 6 6 5 4 4 4 4 4 4 3 3 2
0 2 4 4 3 3 3 3 3 2 0 3 4 3 3 4 4 5 5 5 6 7 7 7 7 7 7 8 8 8 8 7 6 5 6 5 3 2 3 3 4 4 4 4
4 4 3 4 4 3 3 3 2 2 2 1 3 4 3 3 3 4 5 5 6 6 6 6 6 6 6 7 8 8 7 6 5 5 5 5 4 2 2 2 3 4 4 4
3 2 2 3 3 2 1 2 2 1 1 1 2 4 4 4 4 4 5 5 6 6 6 7 7 6 6 6 7 8 7 7 5 5 5 5 5 4 3 1 2 2 3 4
2 1 1 1 2 3 2 2 2 3 2 3 3 4 4 4 4 5 5 5 5 6 6 7 6 6 6 6 7 6 6 7 6 5 5 5 5 5 4 4 3 1 1 3
2 2 3 2 1 2 2 2 3 3 3 3 4 4 4 5 5 4 4 5 6 6 6 6 6 5 5 6 7 7 6 5 5 5 4 4 4 4 4 4 3 2 1 1
1 1 0 0 1 1 1 1 2 1 2 3 4 3 3 4 4 4 4 5 6 6 5 5 5 5 5 6 7 5 5 7 6 5 4 4 4 4 4 4 3 3 3 3
2 2 2 2 2 2 1 1 1 2 3 3 3 3 4 5 4 3 2 3 3 3 4 4 4 4 5 6 6 5 5 5 7 5 4 4 4 4 4 4 4 4 3 3
5 6 5 5 4 3 2 2 1 2 3 3 4 4 4 4 4 3 1 2 3 2 2 2 3 4 5 6 5 4 4 5 5 5 4 4 4 4 4 4 4 4 2 3
6 5 5 4 4 3 3 3 3 3 2 4 5 4 3 2 3 3 2 2 3 1 1 2 4 5 5 5 6 4 5 5 4 4 4 4 4 3 4 4 4 4 4 3
4 4 4 4 3 3 3 3 3 4 3 3 4 4 2 2 2 3 3 1 1 1 1 3 4 4 4 4 5 4 5 5 5 4 4 4 4 4 4 4 4 4 4 4
2 2 3 3 3 3 3 4 5 4 3 3 4 4 3 2 2 3 3 1 1 1 2 3 3 2 3 3 5 4 4 4 4 4 4 4 4 4 4 4 4 4 4 4
1 2 3 3 4 3 2 3 4 4 3 3 4 4 4 3 2 2 1 2 2 2 2 2 2 2 3 4 3 4 4 4 4 3 3 3 4 4 4 4 4 4 4 4
1 2 3 4 4 4 3 3 3 3 3 3 3 3 3 2 2 2 1 1 2 3 2 1 2 4 4 3 3 3 4 4 4 3 3 3 4 4 4 4 4 4 4 4
2 2 3 3 4 5 3 2 3 3 3 2 2 3 3 2 1 1 1 2 2 3 2 2 4 4 3 2 2 3 3 3 3 3 4 3 3 3 3 3 3 3 4 4
2 2 3 4 4 3 2 2 3 3 3 2 1 1 1 1 2 1 1 2 3 3 2 3 4 3 2 2 2 2 3 3 3 3 3 3 3 3 3 3 4 4 4 4
1 1 1 2 2 2 2 2 2 2 2 2 1 0 1 1 1 1 1 2 2 2 2 2 2 2 2 2 2 2 2 2 3 3 3 3 3 3 3 3 4 3 3 4
2 2 2 2 1 1 1 2 2 2 2 3 2 1 1 1 2 2 2 2 2 2 1 1 1 2 2 2 2 2 2 2 2 2 2 2 2 2 2 3 2 2 2 3
Wind_Direction
193 190 165 167 171 169 168 173 172 210 214 237 228 214 198 174 161 159 163 164 167 168 166 163 162 159 154 157 153 148 142 141 143 134 122 118 113 104 95 89 89 85 78 63
121 187 173 168 179 176 185 173 189 182 236 245 221 170 178 180 175 178 184 183 176 171 169 171 173 167 161 161 157 149 147 148 142 133 128 124 117 107 96 88 85 84 81 74
182 220 104 233 206 179 181 181 168 191 226 193 179 195 199 195 189 191 191 187 182 180 180 179 176 167 167 165 154 150 149 146 143 139 134 130 124 113 107 100 94 87 81 79
127 110 192 237 233 174 162 192 194 198 210 195 207 205 199 187 187 195 191 188 185 178 176 173 162 153 148 144 147 147 144 146 146 143 138 132 125 120 115 110 105 98 89 84
121 150 245 288 224 166 154 229 212 201 209 195 107 84 282 208 197 202 195 186 181 174 169 158 155 151 143 145 147 148 151 152 153 150 143 138 134 131 126 118 107 98 97 94
120 137 204 234 261 214 120 253 243 185 186 158 119 145 245 216 190 187 172 166 161 152 146 152 157 150 148 152 156 161 160 154 150 151 148 145 143 137 127 123 118 113 102 92
131 160 244 251 282 112 148 228 228 183 184 167 182 207 225 179 173 168 159 153 148 147 153 159 154 151 153 157 167 163 148 141 143 146 145 141 134 131 129 124 117 112 106 90
134 148 238 290 92 158 209 246 204 193 194 193 217 240 167 162 159 151 147 146 147 148 149 148 152 153 155 164 159 144 141 142 144 146 146 139 134 131 131 132 128 123 115 99
175 199 237 283 236 255 212 213 229 205 218 193 204 215 173 159 152 149 149 151 148 146 144 148 156 156 157 158 148 143 140 145 145 142 136 141 144 145 140 142 143 147 144 150
188 281 302 310 320 338 333 266 268 229 202 171 182 179 156 149 147 146 147 150 147 146 151 158 161 155 149 144 146 145 147 152 152 147 142 141 143 151 155 161 161 164 170 179
44 297 337 338 344 344 359 6 7 12 96 171 161 161 158 156 156 153 146 145 149 155 159 160 156 149 142 144 147 147 149 151 152 153 152 150 147 153 166 175 181 181 192 188
209 224 200 263 301 330 357 356 356 9 17 74 149 151 139 144 147 146 147 144 146 148 152 152 149 146 145 149 150 150 154 157 159 157 154 155 150 121 75 142 166 181 190 187
221 234 217 253 297 310 322 323 342 20 150 124 113 131 133 136 136 135 139 145 153 154 150 148 148 151 154 156 157 161 164 165 164 166 164 162 163 163 160 119 111 148 185 189
228 161 287 276 287 314 330 342 39 60 77 104 112 118 123 119 124 133 140 145 140 138 142 148 152 162 163 159 162 167 165 166 165 171 172 172 174 175 176 175 176 189 190 184
278 207 207 250 325 350 3 44 70 70 79 82 96 105 122 129 135 135 132 133 132 135 144 148 154 168 164 164 167 167 165 167 167 165 166 171 174 171 174 180 183 183 171 158
299 347 183 246 327 341 24 60 95 99 101 97 99 102 110 115 111 111 124 133 139 152 159 158 167 167 161 163 163 162 163 160 158 159 159 162 173 175 178 183 184 189 195 192
190 232 228 229 236 238 220 212 165 153 121 108 114 115 111 107 99 95 108 122 130 147 156 163 170 155 159 164 163 161 158 159 157 156 165 173 179 186 187 187 190 195 204 196
218 225 225 215 211 216 212 194 159 134 140 135 127 122 124 130 137 128 123 100 93 90 120 157 156 151 157 161 161 156 158 161 167 171 173 177 181 185 182 186 192 197 198 186
221 226 226 216 212 206 201 191 167 141 142 136 132 134 136 145 145 124 105 117 126 142 210 162 159 160 159 161 156 159 162 162 163 167 173 174 175 179 183 187 194 199 194 184
222 214 202 194 188 176 176 157 134 123 141 142 128 120 115 123 117 111 114 128 214 210 179 153 156 160 155 154 152 158 161 162 164 166 168 172 178 183 186 192 198 197 196 193
211 193 166 157 150 141 148 142 133 137 155 150 140 140 137 119 111 122 134 168 274 168 143 147 151 155 153 152 154 156 159 163 166 168 170 175 178 183 186 193 199 201 201 198
178 163 156 146 136 126 121 127 128 127 131 132 126 128 125 117 113 111 139 193 208 163 141 147 156 163 161 154 159 163 164 165 166 168 170 175 181 187 189 192 198 201 201 199
149 144 134 135 138 129 110 108 116 121 128 138 143 143 141 149 162 160 182 220 184 163 153 167 168 166 164 160 164 168 170 170 171 175 179 183 188 189 190 194 198 197 195 197
103 107 114 116 112 108 106 108 113 121 131 137 151 159 151 140 125 187 180 179 174 161 152 158 156 154 155 162 164 167 172 178 182 183 185 184 186 188 192 195 197 198 197 199
105 112 114 117 119 128 142 131 111 113 118 117 117 123 141 152 165 191 171 168 166 155 147 155 151 146 146 158 166 171 177 184 187 186 187 187 190 192 196 199 202 200 198 200
94 113 130 144 148 147 144 136 137 144 138 133 126 111 102 110 134 141 134 135 135 138 138 144 146 145 151 158 163 165 167 172 178 184 184 182 184 189 197 202 204 203 202 203
80 87 91 85 86 121 135 142 150 160 158 158 169 181 144 126 123 129 130 125 120 120 126 135 144 149 152 151 151 156 161 167 172 171 169 169 172 179 186 189 195 199 197 196